www.pogodaiklimat.ru

Погода и климат >> Архив погоды >> Гондурас >> Роатан


ПОГОДА на Роатане

  • Прогноз погоды на Роатане
  • Монитор погоды на Роатане

АРХИВ ПОГОДЫ на Роатане

Время (UTC), дата Ветер
(напр.,м/с)
 
Видим.   Явления Облачность Т
(С)
Тd
(С)
f
(%)
Тe
(С)
Тes
(С)
Комфортность P
(гПа)
Po
(гПа)
Тmin
(С)
Tmax
(С)
R
(мм)
R24
(мм)
S
(см)
21 10.06 В 8 10 км мгла {туман} 3/3 660 м
[Cb cap Ci fib]
+31.6 +25.6 71 +47 +48 опасность
перегрева
1011.8 1011.6
00 11.06 В 10 10 км мгла {туман} 8/4 660 м
[Cb cap Ac lent Ci fib]
+29.4 +25.8 81 +44 +44 опасность
перегрева
1012.2 1012.0 +28.6 +33.3
03 11.06 В 10 10 км мгла {туман} 4/1 660 м
[Cb cap As op Ci]
+29.0 +25.1 80 +42 +42 опасность
перегрева
1014.1 1013.9
06 11.06 В 11 10 км мгла {туман} 3/3 660 м
[Cu hum Ci fib]
+28.7 +25.1 81 +42 +42 опасность
перегрева
1014.2 1014.0 +28.5 +33.3
12 11.06 В 9 10 км мгла 4/4 600 м
[Cu med, cong Ci fib]
+28.4 +24.8 81 +41 +41 опасность
перегрева
1014.0 1013.8 +28.4 +33.3
15 11.06 В 8 10 км мгла {туман} 4/3 600 м
[Cu hum Ac trans Ci fib]
+30.2 +25.0 74 +44 +45 опасность
перегрева
1015.2 1015.0
18 11.06 В 7 10 км мгла {туман} 6/3 600 м
[Cu hum Ac trans Ci fib]
+30.4 +24.5 71 +43 +46 опасность
перегрева
1014.6 1014.4 +28.4 +30.5
21 11.06 В 8 10 км мгла {туман} 5/3 600 м
[Cb cap Ac lent Ci fib]
+31.6 +24.6 66 +44 +45 опасность
перегрева
1012.7 1012.5
00 12.06 В 9 10 км мгла {туман} 4/3 660 м
[Cb cap Ac trans Ci fib]
+29.2 +24.0 74 +41 +41 опасность
перегрева
1011.9 1011.7 +28.4 +33.4
03 12.06 В 9 10 км мгла {туман} 4/3 600 м
[Cu hum Ac trans Ci fib]
+28.7 +24.9 80 +41 +41 опасность
перегрева
1013.6 1013.4
06 12.06 В 9 10 км мгла {туман} 3/1 840 м
[Cu hum Ac trans Ci fib]
+28.6 +24.8 80 +41 +41 опасность
перегрева
1013.6 1013.4 +28.4 +33.4
12 12.06 В 7 24 км мгла 8/4 480 м
[Cu med, cong Cs]
+28.2 +24.8 82 +40 +40 очень
душно
1013.4 1013.2 +27.8 +33.4
15 12.06 В 5 16 км мгла {туман} 8/0 600 м
[Ac As Ci sp]
+29.7 +25.3 77 +43 +46 опасность
перегрева
1014.3 1014.1
18 12.06 В 6 20 км 8/0 300 м
[Ac As Ci sp]
+30.5 +27.8 86 +42 +47 опасность
перегрева
1013.8 1013.6 +27.8 +30.5
21 12.06 В 11 16 км мгла {туман} 8/0 600 м
[Ac As Ci sp]
+31.3 +25.3 71 +46 +46 опасность
перегрева
1012.2 1012.0
00 13.06 ЮВ 9 10 км 9/8 600 м
[Sc diur, vesp Ac und Cs]
+33.7 +26.7 67 +38 +38 очень
душно
1013.2 1013.0 +26.7 +33.7 0.1
06 13.06 В 5 16 км мгла {туман} 8/3 600 м
[Cu hum Ac trans]
+28.3 +23.5 75 +38 +38 очень
душно
1013.6 1013.4 +26.7 +33.7
12 13.06 В 8 10 км 6/4 600 м
[Cb calv Ac und Cs]
+33.7 +27.5 70 +39 +39 очень
душно
1013.4 1013.2 +27.5 +33.7
15 13.06 В 11 10 км мгла {туман} 6/3 660 м
[Cu hum Ac trans Ci fib]
+29.9 +24.2 72 +42 +42 опасность
перегрева
1014.8 1014.6
18 13.06 В 10 10 км мгла {туман} 3/3 660 м
[Cu hum Ci fib]
+30.9 +24.4 68 +43 +44 опасность
перегрева
1014.5 1014.3 +27.5 +31.0
21 13.06 В 12 10 км мгла {туман} 5/3 660 м
[Cu hum Ci fib]
+31.2 +24.6 68 +44 +44 опасность
перегрева
1012.7 1012.5
00 14.06 В 12 10 км мгла {туман} 4/3 660 м
[Cu hum Ac lent]
+29.5 +24.4 74 +41 +41 опасность
перегрева
1012.2 1012.0 +27.5 +32.8
03 14.06 В 7 10 км мгла {туман} 4/3 660 м
[Cu hum Ac lent]
+29.2 +23.7 72 +40 +40 очень
душно
1014.9 1014.7
06 14.06 В 10 10 км мгла {туман} 3/3 660 м
[Cu hum Ci fib]
+28.7 +24.5 78 +41 +41 опасность
перегрева
1014.4 1014.2 +27.5 +32.8
12 14.06 В 10 10 км 8/0 600 м
[Ac As]
+32.8 +28.3 77 +39 +39 очень
душно
1014.5 1014.3 +28.3 +32.8
15 14.06 В 8 10 км мгла {туман} 9/1 750 м
[Cu hum Ci fib]
+30.3 +23.5 67 +41 +43 опасность
перегрева
1015.6 1015.5
18 14.06 В 9 10 км мгла {туман} 8/1 750 м
[Cu hum Ac trans Ci fib]
+30.0 +23.4 68 +41 +42 опасность
перегрева
1015.0 1014.8 +28.3 +30.8
21 14.06 В 8 10 км мгла {туман} 8/1 750 м
[Cb cap Ac trans Ci fib]
+30.7 +24.1 68 +43 +44 опасность
перегрева
1013.1 1012.9
00 15.06 В 9 10 км 6/0 600 м
[Ac As]
+33.0 +28.3 76 +40 +40 очень
душно
1012.7 1012.5 +28.3 +33.0
03 15.06 СВ 10 10 км мгла {туман} 4/1 750 м
[Cu hum Ac trans Ci fib]
+28.4 +24.2 78 +40 +40 очень
душно
1014.7 1014.5
06 15.06 В 7 10 км мгла {туман} 5/1 750 м
[Cu hum Ac trans Ci fib]
+28.3 +24.1 78 +39 +39 очень
душно
1014.9 1014.7 +28.3 +33.0
12 15.06 В 9 22 км 8/3 480 м
[Cu hum Ac trans Cs]
+28.0 +24.9 83 +40 +40 очень
душно
1013.8 1013.6 +26.6 +33.0
15 15.06 В 7 10 км 9/1 480 м
[Cu hum Ac As Ci fib]
+28.8 +24.9 79 +41 +43 опасность
перегрева
1015.4 1015.2
18 15.06 В 9 10 км 8/1 600 м
[Cu med, cong Ac trans Ci]
+31.6 +24.6 66 +44 +46 опасность
перегрева
1013.8 1013.6 +26.6 +31.6
21 15.06 В 10 10 км 9/1 600 м
[Cu hum Ac trans Ci sp]
+31.1 +24.2 67 +43 +44 опасность
перегрева
1011.3 1011.1
00 16.06 В 12 10 км 6/1 600 м
[Cu hum Ac trans Ci fib]
+29.1 +24.6 77 +41 +41 опасность
перегрева
1011.3 1011.1 +26.6 +33.5
03 16.06 В 12 16 км мгла {туман} 8/1 600 м
[Cu hum Ac As]
+28.7 +24.8 79 +41 +41 опасность
перегрева
1013.2 1013.0
06 16.06 В 11 16 км мгла {туман} 1/1 600 м
[Cu hum Ac lent]
+28.6 +25.1 81 +41 +41 опасность
перегрева
1013.2 1013.0 +26.6 +33.5
12 16.06 В 11 10 км 1/1 600 м
[Cu Sc As op Ci sp]
+33.5 +18.2 40 +40 +40 очень
душно
1012.0 1011.8 +18.2 +33.5
15 16.06 В 9 10 км мгла {туман} 1/1 660 м
[Cu hum Ci fib]
+30.0 +23.9 70 +41 +42 опасность
перегрева
1013.4 1013.2
18 16.06 В 8 10 км мгла {туман} 3/3 660 м
[Cu hum Ci fib]
+30.4 +24.3 70 +42 +45 опасность
перегрева
1012.3 1012.1 +28.2 +30.5
21 16.06 В 11 10 км мгла {туман} 1/1 750 м
[Cu hum Ci fib]
+31.0 +24.1 67 +43 +43 опасность
перегрева
1010.2 1010.0
03 17.06 В 12 10 км мгла {туман} 4/3 750 м
[Cu hum Ac lent Ci fib]
+28.7 +25.1 81 +42 +42 опасность
перегрева
1011.0 1010.8
06 17.06 В 12 10 км мгла {туман} 4/3 750 м
[Cu hum Ac lent Ci fib]
+28.6 +25.2 82 +42 +42 опасность
перегрева
1011.1 1010.9 +28.2 +32.5
15 17.06 В 10 12 км мгла {туман} 6/0
[Ci fib]
+30.1 +24.0 70 +42 +42 опасность
перегрева
1013.4 1013.2
18 17.06 В 12 12 км мгла {туман} 6/0
[Ci fib]
+30.9 +24.3 68 +43 +43 опасность
перегрева
1012.0 1011.8 +28.5 +31.0

 

Местоположение метеостанции Роатан (Гондурас): широта 16.32 долгота -86.51 высота над уровнем моря 2 м.

В архиве по умолчанию представлена погода на Роатане за последнюю неделю. Архивные данные за месяц целиком и за предыдущие месяцы, начиная с января 2011 года, Вы можете получить, выбрав интересующий диапазон дат из раскрывающегося списка и нажав кнопку "Ввод!".


*Определитесь, кто Вы:
робот инопланетянин человек

Внимание! Время в таблицах - всемирное. Для получения местного времени необходимо прибавить поправку, которая равна -6 ч.

Смотрите также архив погоды в соседних городах и на ближайших метеорологических станциях:

Погода в Ла-Сейбе (Гондурас) (76 км)
Погода в Трухильо (Гондурас) (76 км)
Погода в Теле (Гондурас) (123 км)
Погода в Йоро (Гондурас) (143 км)
Погода в Катакамасе (Гондурас) (170 км)
Погода в Ла-Лиме (Гондурас) (180 км)
Погода в Пуэрто-Барриосе (Гватемала) (233 км)
Погода в Белизе (Белиз) (233 км)
Погода в Тегусигальпе (Гондурас) (263 км)
Погода в Ла-Эсперансе (Гондурас) (284 км)

Пояснения к столбцам:

Ветер - указаны скорость ветра в м/с - средняя за 10 мин, порывы в срок и между сроками (в фигурных скобках) и направление, откуда дует ветер: С - северный, СВ - северо-восточный, В - восточный, ЮВ - юго-восточный, Ю - южный, ЮЗ - юго-западный, З - западный, СЗ - северо-западный.
Видимость - горизонтальная дальность видимости в метрах или километрах. При видимости от 1 до 10 км при отсутствии осадков обычно наблюдается дымка, при ухудшении видимости до 1 км и менее - туман. В сухую погоду видимость может ухудшаться дымом, пылью или мглою.
Явления - указаны атмосферные явления, наблюдавшиеся в срок или в последний час перед сроком; фигурными скобками обозначены явления, наблюдавшиеся между сроками (за 1-3 часа до срока); квадратными скобками обозначены град или гололедные отложения с указанием их диаметра в мм.
Облачность - указаны через наклонную черту общая и нижняя облачность в баллах и высота нижней границы облаков в метрах; квадратными скобками обозначены формы облаков: Ci - перистые, Cs - перисто-слоистые, Cc - перисто-кучевые, Ac - высококучевые, As - высокослоистые, Sc - слоисто-кучевые, Ns - слоисто-дождевые, Cu - кучевые, Cb - кучево-дождевые. Подробнее классификацию облаков см. в Атласе облаков (PDF).
T - Температура воздуха - температура, измеренная на высоте 2 м над землей.
Td - Температура точки росы - температура, при понижении до которой содержащийся в воздухе водяной пар достигнет насыщения.
f - Относительная влажность воздуха - влажноcть воздуха, измеренная на высоте 2 м над землей.
Te - Эффективная температура - температура, которую ощущает одетый по сезону человек в тени. Характеристика душности погоды. При расчете учитывается влияние влажности воздуха и скорости ветра на теплоощущения человека.
Tes - Эффективная температура на солнце - температура, которую ощущает человек, с поправкой на солнечный нагрев. Характеристика знойности погоды. Зависит от высоты солнца над горизонтом, облачности и скорости ветра. Ночью, в пасмурную погоду, а также при ветре 12 м/с и более поправка равна нулю.
P - Атмосферное давление - приведенное к уровню моря атмосферное давление.
Po - Атмосферное давление - измеренное на уровне метеостанции атмосферное давление.
Tmin - Минимальная температура - минимум температуры воздуха на высоте 2 м над землей.
Tmax - Максимальная температура - максимум температуры воздуха на высоте 2 м над землей.
R - Количество осадков - Количество выпавших осадков за период времени, мм. При наведении курсора мыши на число - период времени, за который выпало указанное количество осадков.
R24 - Количество осадков - Количество выпавших осадков за 24 часа, мм.
S - Снежный покров - Высота снежного покрова, см. При наведении курсора мыши на число - состояние снежного покрова и степень покрытия местности в баллах.